When you browse on this site, cookies collect data to enhance your experience and personalize the content and advertising you see.
Visit our Privacy Policy to learn more. By continuing to use the site, you agree to this use of cookies and data.
  • In Switzerland
  • List of Countries
  • For 7 days
  • Water Temperature
  • Satellite Maps
  • Weather Map
  • Weather Widgets
  • user-avatar
    Login

    Hourly Weather Ivicy

    Today, 27 June, Thursday

    Time Temperature Precipitation Wind Pressure Humidity
    00:00 +18°C° 0.6 mm 1 mps 742 mmHg 88%
    01:00 +18°C° 0.6 mm 1 mps 741 mmHg 91%
    02:00 +16°C° 0.6 mm 1 mps 741 mmHg 93%
    03:00 +16°C° 0.2 mm 1 mps 740 mmHg 94%
    04:00 +18°C° 0.2 mm 1 mps 739 mmHg 94%
    05:00 +18°C° 0.2 mm 1 mps 739 mmHg 94%
    06:00 +18°C° 0 mm 1 mps 738 mmHg 94%
    07:00 +19°C° 0 mm 1 mps 738 mmHg 93%
    08:00 +19°C° 0 mm 1 mps 738 mmHg 92%
    09:00 +19°C° 1.6 mm 2 mps 737 mmHg 93%
    10:00 +19°C° 1.6 mm 3 mps 736 mmHg 95%
    11:00 +19°C° 1.6 mm 4 mps 735 mmHg 96%
    12:00 +20°C° 0.6 mm 5 mps 734 mmHg 93%
    13:00 +21°C° 0.6 mm 5 mps 733 mmHg 90%
    14:00 +22°C° 0.6 mm 5 mps 733 mmHg 87%
    15:00 +21°C° 4.1 mm 4 mps 731 mmHg 90%
    16:00 +20°C° 4.1 mm 3 mps 730 mmHg 92%
    17:00 +20°C° 4.1 mm 2 mps 729 mmHg 94%
    18:00 +19°C° 0.3 mm 2 mps 728 mmHg 95%
    19:00 +19°C° 0.3 mm 2 mps 728 mmHg 95%
    20:00 +19°C° 0.3 mm 2 mps 727 mmHg 95%
    21:00 +18°C° 0.3 mm 3 mps 726 mmHg 95%
    22:00 +18°C° 0.3 mm 4 mps 726 mmHg 96%
    23:00 +17°C° 0.3 mm 5 mps 725 mmHg 96%

    Tomorrow, 28 June, Friday

    Time Temperature Precipitation Wind Pressure Humidity
    00:00 +17°C° 0 mm 5 mps 725 mmHg 95%
    01:00 +16°C° 0 mm 5 mps 725 mmHg 95%
    02:00 +16°C° 0 mm 6 mps 725 mmHg 95%
    03:00 +15°C° 0.1 mm 6 mps 725 mmHg 94%
    04:00 +14°C° 0.1 mm 6 mps 725 mmHg 93%
    05:00 +12°C° 0.1 mm 7 mps 725 mmHg 93%
    06:00 +14°C° 0.1 mm 7 mps 724 mmHg 91%
    07:00 +14°C° 0.1 mm 6 mps 724 mmHg 89%
    08:00 +14°C° 0.1 mm 6 mps 724 mmHg 88%
    09:00 +14°C° 0 mm 6 mps 724 mmHg 86%
    10:00 +14°C° 0 mm 7 mps 724 mmHg 84%
    11:00 +14°C° 0 mm 7 mps 724 mmHg 83%
    12:00 +14°C° 0.1 mm 6 mps 724 mmHg 82%
    13:00 +14°C° 0.1 mm 6 mps 724 mmHg 82%
    14:00 +14°C° 0.1 mm 6 mps 724 mmHg 82%
    15:00 +14°C° 0.1 mm 5 mps 724 mmHg 85%
    16:00 +13°C° 0.1 mm 5 mps 724 mmHg 87%
    17:00 +13°C° 0.1 mm 4 mps 725 mmHg 90%
    18:00 +12°C° 0.2 mm 5 mps 725 mmHg 91%
    19:00 +10°C° 0.2 mm 6 mps 725 mmHg 92%
    20:00 +9°C° 0.2 mm 7 mps 726 mmHg 94%
    21:00 +9°C° 0.4 mm 7 mps 726 mmHg 94%
    22:00 +9°C° 0.4 mm 8 mps 726 mmHg 94%
    23:00 +7°C° 0.4 mm 8 mps 726 mmHg 94%

    Day after tomorrow, 29 June, Saturday

    Time Temperature Precipitation Wind Pressure Humidity
    00:00 +9°C° 0.4 mm 8 mps 727 mmHg 94%
    01:00 +9°C° 0.4 mm 7 mps 727 mmHg 95%
    02:00 +9°C° 0.4 mm 7 mps 727 mmHg 95%
    03:00 +9°C° 0.4 mm 7 mps 727 mmHg 95%
    04:00 +9°C° 0.4 mm 8 mps 728 mmHg 94%
    05:00 +7°C° 0.4 mm 8 mps 728 mmHg 94%
    06:00 +6°C° 0.5 mm 8 mps 728 mmHg 94%
    07:00 +6°C° 0.5 mm 8 mps 729 mmHg 94%
    08:00 +5°C° 0.5 mm 8 mps 729 mmHg 93%
    09:00 +5°C° 0.6 mm 8 mps 730 mmHg 93%
    10:00 +5°C° 0.6 mm 8 mps 731 mmHg 92%
    11:00 +5°C° 0.6 mm 8 mps 731 mmHg 92%
    12:00 +5°C° 1.2 mm 8 mps 732 mmHg 92%
    13:00 +5°C° 1.2 mm 8 mps 732 mmHg 93%
    14:00 +5°C° 1.2 mm 7 mps 733 mmHg 93%
    15:00 +5°C° 1.1 mm 7 mps 733 mmHg 93%
    16:00 +7°C° 1.1 mm 6 mps 733 mmHg 93%
    17:00 +7°C° 1.1 mm 6 mps 733 mmHg 93%
    18:00 +7°C° 0.8 mm 5 mps 734 mmHg 93%
    19:00 +7°C° 0.8 mm 4 mps 734 mmHg 93%
    20:00 +8°C° 0.8 mm 3 mps 734 mmHg 94%
    21:00 +8°C° 0.1 mm 3 mps 735 mmHg 93%
    22:00 +8°C° 0.1 mm 3 mps 735 mmHg 92%
    23:00 +8°C° 0.1 mm 3 mps 735 mmHg 91%

    30 June, Sunday

    Time Temperature Precipitation Wind Pressure Humidity
    00:00 +8°C° 0 mm 3 mps 735 mmHg 92%
    01:00 +7°C° 0 mm 3 mps 735 mmHg 93%
    02:00 +7°C° 0 mm 2 mps 735 mmHg 94%
    03:00 +7°C° 0 mm 3 mps 736 mmHg 92%
    04:00 +7°C° 0 mm 3 mps 736 mmHg 90%
    05:00 +7°C° 0 mm 4 mps 736 mmHg 89%
    06:00 +8°C° 0 mm 4 mps 737 mmHg 84%
    07:00 +11°C° 0 mm 4 mps 737 mmHg 79%
    08:00 +13°C° 0 mm 4 mps 737 mmHg 75%
    09:00 +14°C° 0 mm 5 mps 737 mmHg 69%
    10:00 +15°C° 0 mm 5 mps 738 mmHg 63%
    11:00 +17°C° 0 mm 5 mps 738 mmHg 57%
    12:00 +17°C° 0 mm 5 mps 738 mmHg 56%
    13:00 +19°C° 0 mm 5 mps 738 mmHg 55%
    14:00 +19°C° 0 mm 5 mps 738 mmHg 55%
    15:00 +19°C° 0 mm 4 mps 738 mmHg 60%
    16:00 +19°C° 0 mm 3 mps 738 mmHg 64%
    17:00 +19°C° 0 mm 3 mps 738 mmHg 69%
    18:00 +17°C° 0 mm 2 mps 738 mmHg 75%
    19:00 +16°C° 0 mm 2 mps 739 mmHg 81%
    20:00 +14°C° 0 mm 2 mps 739 mmHg 86%
    21:00 +13°C° 0 mm 2 mps 739 mmHg 89%
    22:00 +13°C° 0 mm 2 mps 739 mmHg 91%
    23:00 +12°C° 0 mm 2 mps 739 mmHg 93%

    1 July, Monday

    Time Temperature Precipitation Wind Pressure Humidity
    00:00 +12°C° 0 mm 2 mps 739 mmHg 94%
    01:00 +10°C° 0 mm 2 mps 739 mmHg 95%
    02:00 +10°C° 0 mm 3 mps 739 mmHg 95%
    03:00 +10°C° 0 mm 2 mps 740 mmHg 95%
    04:00 +12°C° 0 mm 2 mps 740 mmHg 94%
    05:00 +12°C° 0 mm 2 mps 740 mmHg 93%
    06:00 +14°C° 0 mm 2 mps 740 mmHg 87%
    07:00 +16°C° 0 mm 2 mps 740 mmHg 81%
    08:00 +18°C° 0 mm 2 mps 739 mmHg 74%
    09:00 +19°C° 0 mm 2 mps 739 mmHg 68%
    10:00 +21°C° 0 mm 1 mps 739 mmHg 61%
    11:00 +22°C° 0 mm 1 mps 739 mmHg 55%
    12:00 +22°C° 0 mm 1 mps 739 mmHg 54%
    13:00 +23°C° 0 mm 1 mps 739 mmHg 52%
    14:00 +23°C° 0 mm 1 mps 738 mmHg 51%
    15:00 +23°C° 0 mm 1 mps 738 mmHg 56%
    16:00 +23°C° 0 mm 2 mps 738 mmHg 60%
    17:00 +23°C° 0 mm 2 mps 738 mmHg 64%
    18:00 +20°C° 0 mm 2 mps 738 mmHg 68%
    19:00 +18°C° 0 mm 3 mps 737 mmHg 72%
    20:00 +16°C° 0 mm 3 mps 737 mmHg 76%
    21:00 +16°C° 0 mm 3 mps 737 mmHg 76%
    22:00 +14°C° 0 mm 3 mps 737 mmHg 76%
    23:00 +14°C° 0 mm 3 mps 736 mmHg 76%

    2 July, Tuesday

    Time Temperature Precipitation Wind Pressure Humidity
    00:00 +13°C° 0 mm 3 mps 736 mmHg 79%
    01:00 +13°C° 0 mm 3 mps 736 mmHg 81%
    02:00 +13°C° 0 mm 3 mps 735 mmHg 84%
    03:00 +14°C° 0 mm 3 mps 735 mmHg 86%
    04:00 +14°C° 0 mm 3 mps 735 mmHg 88%
    05:00 +16°C° 0 mm 3 mps 735 mmHg 90%
    06:00 +17°C° 0 mm 3 mps 735 mmHg 89%
    07:00 +19°C° 0 mm 3 mps 735 mmHg 88%
    08:00 +21°C° 0 mm 3 mps 734 mmHg 86%
    09:00 +21°C° 0 mm 3 mps 734 mmHg 87%
    10:00 +21°C° 0 mm 3 mps 734 mmHg 87%
    11:00 +21°C° 0 mm 3 mps 734 mmHg 87%
    12:00 +22°C° 0.1 mm 4 mps 734 mmHg 85%
    13:00 +22°C° 0.1 mm 4 mps 733 mmHg 82%
    14:00 +23°C° 0.1 mm 4 mps 733 mmHg 80%
    15:00 +23°C° 0.2 mm 5 mps 733 mmHg 80%
    16:00 +23°C° 0.2 mm 5 mps 733 mmHg 79%
    17:00 +23°C° 0.2 mm 5 mps 733 mmHg 79%
    18:00 +21°C° 0 mm 4 mps 734 mmHg 82%
    19:00 +20°C° 0 mm 4 mps 734 mmHg 86%
    20:00 +18°C° 0 mm 3 mps 734 mmHg 89%
    21:00 +17°C° 0 mm 3 mps 734 mmHg 89%
    22:00 +16°C° 0 mm 3 mps 734 mmHg 90%
    23:00 +14°C° 0 mm 4 mps 734 mmHg 90%
    Show more